This demonstration page uses our WeatherBlox Daily Observations layout. Learn more.

Left ArrowRight Arrow

53.62937, 11.41316

Hourly Observations for May 8, 2021

Temp ( °F °C ) Dew Point ( °F °C ) Humidity (%) Winds ( mph kmh ) Pressure ( in mb ) Visibility ( mi km ) Precip ( " mm )
7:50 am 07:50 Mostly Sunny 43 6 39 4 87 87 SSW 6 9 30.03 1017 7 11 N/A
8:20 am 08:20 Mostly Sunny 45 7 39 4 81 81 SSW 8 13 30.03 1017 30 48 N/A
8:50 am 08:50 Mostly Sunny 45 7 39 4 81 81 SSW 9 15 30.03 1017 30 48 N/A
9:20 am 09:20 Partly Cloudy 48 9 41 5 76 76 SSW 10 17 30.03 1017 30 48 N/A
9:50 am 09:50 Partly Cloudy 48 9 37 3 66 66 SSW 12 19 30.03 1017 30 48 N/A
10:20 am 10:20 Partly Cloudy 48 9 36 2 62 62 WSW 7 11 30.03 1017 30 48 N/A
10:50 am 10:50 Partly Cloudy 50 10 37 3 62 62 SW 10 17 30.03 1017 30 48 N/A
11:20 am 11:20 Mostly Cloudy 50 10 37 3 62 62 SW 8 13 30.03 1017 30 48 N/A
11:50 am 11:50 Partly Cloudy 50 10 34 1 54 54 SSW 10 17 30.03 1017 30 48 N/A
12:20 pm 12:20 Mostly Cloudy 52 11 34 1 50 50 SSW 10 17 30.00 1016 30 48 N/A
12:50 pm 12:50 Mostly Cloudy 54 12 34 1 47 47 SSW 7 11 30.00 1016 30 48 N/A
1:20 pm 13:20 Mostly Cloudy 54 12 34 1 47 47 VRB 6 9 30.00 1016 30 48 N/A
1:50 pm 13:50 Mostly Cloudy 55 13 34 1 44 44 SSW 9 15 30.00 1016 30 48 N/A
2:20 pm 14:20 Mostly Sunny 54 12 34 1 47 47 SSW 12 19 30.00 1016 7 11 N/A
2:50 pm 14:50 Mostly Sunny 55 13 36 2 47 47 VRB 6 9 29.97 1015 7 11 N/A
3:20 pm 15:20 Mostly Sunny 55 13 32 undefined 41 41 WSW 6 9 29.97 1015 7 11 N/A
3:50 pm 15:50 Mostly Sunny 57 14 30 -1 36 36 S 6 9 29.97 1015 7 11 N/A
4:20 pm 16:20 Mostly Sunny 57 14 28 -2 33 33 SSE 7 11 29.94 1014 7 11 N/A
4:50 pm 16:50 Mostly Sunny 57 14 30 -1 36 36 SSE 6 9 29.94 1014 7 11 N/A
5:20 pm 17:20 Mostly Sunny 57 14 30 -1 36 36 SSE 7 11 29.94 1014 7 11 N/A
5:50 pm 17:50 Mostly Sunny 55 13 30 -1 38 38 SSE 6 9 29.91 1013 7 11 N/A
6:20 pm 18:20 Mostly Sunny 55 13 30 -1 38 38 SE 6 9 29.91 1013 7 11 N/A
6:50 pm 18:50 Mostly Sunny 55 13 32 undefined 41 41 SE 6 9 29.91 1013 7 11 N/A
7:20 pm 19:20 Mostly Sunny 55 13 32 undefined 41 41 SSE 5 7 29.91 1013 30 48 N/A
7:50 pm 19:50 Partly Cloudy 55 13 32 undefined 41 41 S 7 11 29.91 1013 30 48 N/A
8:20 pm 20:20 Mostly Cloudy 54 12 34 1 47 47 S 6 9 29.89 1012 30 48 N/A
8:50 pm 20:50 Mostly Cloudy 54 12 36 2 51 51 VRB 3 6 29.89 1012 30 48 N/A

Powered by AerisWeather